EW5447 Weather Reports


Display with metric or nautical units.
time (UTC)temp
F
wind
direction
speed
MPH
gust
MPH
rain 1hr
in
rain 24hr
in
rain mn
in
humidity
%
barometer
mb
20260902173031 57 254 0.0 0.0 0.05 0.19 0.07 90 1010.8
20260902171521 57 252 0.0 0.0 0.05 0.18 0.06 90 1011.0
20260902170023 57 78 0.0 0.0 0.05 0.17 0.05 90 1010.9
20260902164521 56 78 0.0 0.0 0.04 0.16 0.04 90 1010.9
20260902163017 56 78 0.0 0.0 0.02 0.14 0.02 90 1010.9
20260902161517 56 5 0.0 0.0 0.01 0.13 0.01 90 1010.9
20260902160016 56 15 0.0 0.0 0.00 0.12 0.00 91 1011.0
20260902154523 55 30 0.0 0.0 0.00 0.12 0.00 92 1011.1
20260902153013 55 254 0.0 0.0 0.00 0.12 0.00 92 1011.2
20260902151511 54 76 0.0 0.0 0.00 0.12 0.00 92 1011.2
20260902150010 54 150 0.0 0.0 0.00 0.12 0.00 92 1011.4
20260902144509 54 198 0.0 0.0 0.00 0.12 0.00 92 1011.3
20260902143008 54 85 0.0 0.0 0.00 0.12 0.00 92 1011.4
20260902141507 53 73 1.0 2.0 0.00 0.12 0.00 92 1011.3
20260902140008 53 11 0.0 0.0 0.00 0.12 0.00 91 1011.5
20260902134502 54 296 0.0 0.0 0.00 0.12 0.00 91 1011.6
20260902133002 54 58 0.0 0.0 0.00 0.12 0.00 91 1011.5
20260902131613 54 56 0.0 0.0 0.00 0.12 0.00 91 1011.5
20260902124557 54 84 0.0 3.0 0.00 0.12 0.00 92 1011.8
20260902123058 53 75 1.0 5.0 0.00 0.12 0.00 93 1011.7
20260902121556 53 62 1.0 5.0 0.00 0.12 0.00 93 1011.7
20260902120053 52 338 0.0 0.0 0.00 0.12 0.00 92 1012.0
20260902114609 52 227 0.0 0.0 0.00 0.12 0.00 92 1012.3
20260902113049 52 227 0.0 0.0 0.00 0.12 0.00 92 1012.4
20260902111548 52 216 0.0 0.0 0.00 0.12 0.00 92 1012.6
20260902110059 52 342 0.0 0.0 0.00 0.12 0.00 91 1012.6
20260902104545 52 342 0.0 0.0 0.00 0.12 0.00 91 1012.6
20260902103050 52 342 0.0 0.0 0.00 0.12 0.00 89 1012.7
20260902101548 52 342 0.0 0.0 0.00 0.12 0.00 89 1012.7
20260902100039 53 347 0.0 0.0 0.00 0.12 0.00 88 1012.8
20260902094535 54 278 0.0 0.0 0.00 0.12 0.00 87 1012.9
20260902093038 54 314 0.0 0.0 0.00 0.12 0.00 88 1012.9
20260902091531 55 355 0.0 0.0 0.00 0.12 0.00 88 1013.0
20260902090028 56 355 0.0 0.0 0.00 0.12 0.00 87 1013.2
20260902084527 57 280 0.0 0.0 0.00 0.12 0.00 86 1013.4
20260902083033 57 271 0.0 0.0 0.00 0.12 0.00 86 1013.4
20260902081532 58 9 0.0 0.0 0.00 0.12 0.00 85 1013.2
20260902080026 58 68 0.0 2.0 0.00 0.12 0.00 82 1013.1
20260902074518 58 248 1.0 2.0 0.00 0.12 0.00 85 1013.0
20260902073028 58 5 0.0 0.0 0.00 0.12 0.00 86 1012.9
20260902071517 59 350 0.0 1.0 0.00 0.12 0.00 87 1012.9
20260902070014 59 11 0.0 0.0 0.00 0.12 0.00 87 1013.0
20260902064513 59 20 0.0 0.0 0.00 0.12 0.12 87 1013.0
20260902063016 59 74 0.0 0.0 0.00 0.12 0.12 85 1012.9
20260902061513 59 74 0.0 0.0 0.00 0.12 0.12 85 1012.9
20260902060015 59 69 0.0 0.0 0.00 0.12 0.12 85 1013.1
20260902054520 59 114 0.0 0.0 0.00 0.12 0.12 87 1013.2
20260902053010 59 113 0.0 2.0 0.00 0.12 0.12 86 1013.2
20260902051509 59 327 0.0 0.0 0.00 0.12 0.12 86 1013.3
20260902050009 59 327 0.0 0.0 0.01 0.12 0.12 84 1013.2
20260902044508 59 327 0.0 2.0 0.02 0.12 0.12 84 1013.2
20260902043008 59 273 0.0 0.0 0.02 0.12 0.12 85 1013.4
20260902041505 60 360 0.0 0.0 0.02 0.12 0.12 84 1013.1
20260902040006 60 261 0.0 0.0 0.02 0.11 0.11 81 1012.9
20260902034501 60 247 0.0 1.0 0.02 0.10 0.10 81 1012.6
20260902033106 60 292 0.0 2.0 0.05 0.10 0.10 77 1012.6
20260902031557 60 259 0.0 6.0 0.10 0.10 0.10 74 1012.4
20260902030057 61 245 3.0 6.0 0.09 0.09 0.09 73 1012.0
20260902024600 63 249 4.0 6.0 0.08 0.08 0.08 68 1011.7
20260902023055 65 292 3.0 7.0 0.03 0.03 0.03 63 1011.4
20260902021556 65 260 5.0 11.0 0.00 0.00 0.00 58 1011.4
20260902020057 66 273 5.0 12.0 0.00 0.00 0.00 56 1011.1
20260902014554 68 235 5.0 14.0 0.00 0.00 0.00 49 1011.1
20260902013052 69 240 7.0 15.0 0.00 0.00 0.00 48 1010.8
20260902011551 69 273 8.0 15.0 0.00 0.00 0.00 49 1010.7
20260902010051 69 248 7.0 14.0 0.00 0.00 0.00 48 1010.6
20260902004550 69 259 8.0 16.0 0.00 0.00 0.00 48 1010.5
20260902003055 70 242 10.0 17.0 0.00 0.00 0.00 47 1010.4
20260902001549 71 258 8.0 15.0 0.00 0.00 0.00 46 1010.1
20260902000111 72 250 7.0 12.0 0.00 0.00 0.00 45 1010.1
20260901234549 72 254 7.0 13.0 0.00 0.00 0.00 45 1009.9
20260901233046 73 269 4.0 11.0 0.00 0.00 0.00 44 1009.9
20260901231550 73 234 6.0 15.0 0.00 0.00 0.00 45 1009.9
20260901230046 72 296 7.0 14.0 0.00 0.00 0.00 45 1009.8
20260901224544 73 259 8.0 14.0 0.00 0.00 0.00 44 1009.7
20260901223044 74 264 9.0 16.0 0.00 0.00 0.00 42 1009.6
20260901221543 76 281 10.0 14.0 0.00 0.00 0.00 41 1009.6
20260901220109 76 264 10.0 15.0 0.00 0.00 0.00 40 1009.5
20260901214540 76 282 9.0 14.0 0.00 0.00 0.00 39 1009.6
20260901213105 76 279 9.0 11.0 0.00 0.00 0.00 39 1009.6
20260901211539 77 270 8.0 14.0 0.00 0.00 0.00 38 1009.7
20260901210047 78 264 6.0 12.0 0.00 0.00 0.00 37 1009.6
20260901204539 78 266 5.0 9.0 0.00 0.00 0.00 38 1009.8
20260901203052 77 273 4.0 13.0 0.00 0.00 0.00 37 1009.9
20260901201534 77 94 1.0 5.0 0.00 0.00 0.00 37 1010.0
20260901200034 77 265 2.0 8.0 0.00 0.00 0.00 37 1010.2
20260901194537 75 190 2.0 5.0 0.00 0.00 0.00 39 1010.6
20260901193028 73 221 4.0 8.0 0.00 0.00 0.00 40 1010.9
20260901191526 74 261 5.0 8.0 0.00 0.00 0.00 40 1011.0
20260901190026 73 205 2.0 6.0 0.00 0.00 0.00 42 1011.3
20260901184529 72 269 0.0 9.0 0.00 0.00 0.00 43 1011.4
20260901183031 72 54 4.0 7.0 0.00 0.00 0.00 43 1011.5
20260901181518 71 124 1.0 5.0 0.00 0.00 0.00 46 1011.7
20260901180014 70 271 4.0 8.0 0.00 0.00 0.00 47 1011.8
20260901174510 68 28 1.0 7.0 0.00 0.00 0.00 49 1012.0